Location: Chateh
(58.6667°N, 118.6000°W)
Time: 18:23:46
(UTC+00:00)

Gurwin Techsat 1B - Pass Details

Date: 05 December 2023
Orbit: 810 x 813 km, 98.9° (Epoch: 21 February)

Event Time Altitude Azimuth Distance (km) Brightness Sun altitude
Rises 13:16:00 0° 17° (NNE) 3,353 11.9 -22.7°
Reaches altitude 10° 13:18:38 10° 6° (N) 2,417 11.1 -22.3°
Enters shadow 13:21:29 24° 338° (NNW) 1,645 9.9 -22.0°
